Temp
19 19 18 18 18 19 18 18 19 19 19 19 19 19 19 19 18 19 19 18 18 19 19 19 19 20 20 19 20 20 20 20 19 20 20 20 20 20 20 20 20 19 19
19 19 18 18 17 18 18 18 18 18 18 19 19 18 18 19 19 19 19 19 18 18 18 19 18 19 19 19 19 19 19 19 19 18 19 19 19 20 20 20 20 20 20
19 19 19 18 17 18 18 18 18 18 19 19 19 19 19 18 18 18 18 18 18 18 18 18 19 19 18 18 18 18 18 19 19 19 18 18 19 19 19 19 20 20 20
17 18 18 18 17 17 18 18 19 19 19 19 19 19 19 18 18 18 18 18 18 18 18 18 18 18 18 18 18 19 18 18 18 18 18 18 18 18 19 19 19 19 20
16 15 16 16 17 17 17 18 18 18 19 19 19 19 19 19 19 18 18 18 18 19 19 18 18 18 18 18 18 18 18 18 18 18 19 19 19 19 19 18 18 19 19
15 15 15 15 16 16 17 17 18 18 18 18 19 19 19 18 19 19 19 19 18 18 19 18 18 18 18 18 18 18 18 18 19 18 18 18 18 18 18 18 18 18 19
15 15 15 15 15 15 16 16 17 17 18 17 18 18 18 18 19 19 19 19 19 19 19 19 19 18 19 19 18 19 19 19 19 19 19 19 19 17 18 19 17 18 18
15 14 15 15 15 15 15 16 17 16 16 16 17 18 18 19 19 19 19 19 18 19 19 19 19 18 19 19 19 19 19 19 19 19 19 19 19 19 19 18 18 19 18
14 14 14 14 14 14 14 14 15 16 15 15 15 16 17 17 18 17 17 18 18 18 18 18 18 18 19 19 19 19 18 18 18 19 19 19 19 19 18 18 18 17 18
12 13 13 13 13 13 14 14 15 14 14 14 15 15 15 16 16 16 16 16 16 16 16 16 16 16 16 16 16 16 17 17 18 19 18 18 18 18 18 18 18 17 17
13 13 13 13 13 14 14 14 14 13 14 13 13 13 12 13 15 15 15 15 15 15 15 15 15 15 15 16 16 15 16 16 17 17 17 17 17 16 16 16 16 17 17
13 13 13 13 14 14 13 13 13 12 12 12 12 12 12 11 13 13 13 14 14 14 14 14 15 15 15 15 15 15 16 16 16 16 15 15 15 15 15 15 16 16 16
12 12 12 12 12 12 12 12 12 12 12 12 11 12 12 12 13 13 13 13 13 13 13 13 14 15 15 15 15 15 15 15 14 14 16 16 15 16 16 16 16 16 15
11 11 11 11 11 11 11 11 11 11 11 12 12 12 12 12 13 13 13 13 14 13 13 14 14 14 15 14 14 14 14 14 15 14 14 15 15 15 15 16 16 16 17
10 10 10 10 10 10 10 10 10 11 11 11 11 11 11 11 12 12 12 12 13 13 13 13 13 14 14 14 14 12 10 10 10 10 11 13 13 13 13 14 15 15 15
9 9 9 9 9 9 9 9 9 9 10 10 10 10 10 11 11 10 11 11 11 12 12 12 12 11 11 11 11 10 8 7 7 9 8 8 8 9 9 11 10 10 12
8 9 9 9 8 8 8 8 8 7 8 8 8 8 9 9 9 10 10 10 11 11 10 10 10 9 9 8 6 6 7 7 7 6 6 6 6 7 7 7 8 8 9
8 8 8 8 8 8 8 7 7 7 7 7 7 7 8 8 9 9 9 9 9 10 9 9 9 9 8 8 7 6 6 6 5 5 5 5 5 5 5 6 7 6 7
8 8 8 7 7 7 7 7 7 7 7 7 7 7 7 8 8 8 8 8 8 7 7 6 5 5 5 5 5 5 5 4 3 2 3 2 3 3 3 3 4 6 6
7 7 7 7 6 6 6 6 6 6 6 6 6 6 6 7 7 7 7 6 6 6 5 5 5 5 4 3 1 -0 -0 2 2 2 2 1 1 1 1 1 2 3 4
6 6 6 6 6 6 5 5 5 5 5 5 4 4 4 5 4 4 4 3 3 3 3 2 2 2 2 2 2 2 1 -1 -1 -1 -1 -0 -0 0 -0 0 0 0 1
6 6 6 5 5 5 5 5 5 4 4 4 4 4 4 4 3 3 3 2 2 2 2 1 1 -0 -1 -2 -2 -3 -2 -1 -0 -2 -3 -2 -2 -1 -1 -1 -1 -1 -0
5 5 5 5 5 5 4 4 4 4 4 3 3 3 3 3 2 2 2 2 2 2 2 1 1 0 -0 -1 -1 -2 -3 -4 -4 -4 -4 -3 -3 -3 -3 -2 -2 -2 -1
5 5 5 5 5 4 4 4 4 4 3 3 3 3 2 2 2 2 1 1 1 1 1 1 1 0 -1 -1 -1 -2 -2 -2 -3 -4 -4 -4 -4 -3 -3 -2 -2 -2 -2
5 5 4 5 5 4 4 4 4 4 4 3 3 3 2 2 2 2 1 1 1 1 1 1 0 -0 -1 -1 -2 -2 -2 -2 -3 -3 -4 -4 -4 -4 -3 -3 -3 -2 -1
5 5 4 3 4 4 4 4 4 4 3 3 3 3 2 2 2 2 1 1 1 1 1 0 -0 -1 -1 -1 -2 -2 -2 -3 -3 -3 -3 -3 -3 -3 -2 -2 -2 -1 -1
Height
1586 1590 1593 1595 1597 1599 1601 1601 1602 1604 1606 1608 1609 1610 1611 1611 1611 1613 1615 1617 1618 1618 1618 1619 1620 1621 1621 1622 1623 1623 1622 1621 1621 1620 1616 1614 1612 1609 1606 1603 1601 1599 1596
1582 1586 1589 1592 1594 1596 1598 1600 1599 1602 1604 1606 1606 1608 1609 1609 1609 1611 1613 1614 1616 1617 1617 1617 1618 1618 1619 1619 1619 1620 1620 1619 1618 1616 1614 1612 1609 1607 1604 1601 1599 1597 1593
1577 1580 1584 1589 1592 1593 1595 1596 1599 1600 1601 1604 1605 1606 1607 1608 1609 1610 1610 1612 1614 1615 1615 1615 1614 1614 1616 1616 1616 1617 1617 1616 1615 1613 1612 1610 1607 1605 1602 1599 1596 1594 1592
1571 1575 1580 1584 1588 1591 1591 1593 1596 1598 1599 1601 1602 1604 1605 1606 1607 1608 1608 1609 1610 1612 1612 1613 1613 1612 1613 1613 1613 1613 1613 1613 1612 1611 1610 1608 1605 1602 1599 1597 1594 1592 1589
1569 1572 1574 1581 1584 1587 1589 1590 1592 1595 1597 1598 1600 1601 1603 1604 1605 1605 1606 1606 1607 1608 1609 1610 1610 1610 1611 1610 1610 1610 1609 1609 1609 1609 1607 1605 1603 1601 1598 1595 1592 1588 1586
1567 1567 1569 1575 1578 1585 1585 1586 1589 1591 1593 1595 1597 1598 1599 1600 1601 1602 1603 1603 1605 1605 1605 1606 1606 1607 1607 1607 1607 1606 1606 1605 1604 1604 1603 1602 1599 1597 1595 1593 1590 1586 1582
1566 1568 1570 1573 1575 1579 1582 1584 1586 1589 1590 1592 1593 1594 1596 1597 1597 1599 1599 1600 1601 1600 1600 1601 1603 1602 1602 1602 1602 1602 1602 1601 1600 1599 1596 1596 1594 1593 1591 1588 1586 1583 1580
1564 1567 1570 1572 1574 1576 1581 1582 1584 1586 1587 1589 1590 1591 1592 1592 1593 1595 1596 1596 1596 1596 1595 1596 1596 1595 1596 1596 1596 1596 1596 1596 1595 1593 1591 1590 1589 1588 1586 1583 1580 1577 1574
1564 1568 1570 1570 1572 1574 1577 1578 1580 1582 1584 1585 1586 1587 1588 1589 1589 1591 1593 1593 1592 1591 1591 1591 1590 1590 1589 1590 1590 1589 1589 1588 1588 1587 1585 1584 1583 1582 1580 1577 1575 1574 1571
1565 1567 1568 1569 1571 1573 1575 1576 1579 1581 1581 1581 1581 1584 1586 1586 1587 1588 1591 1591 1591 1590 1589 1588 1587 1585 1584 1583 1583 1583 1582 1581 1580 1579 1579 1577 1576 1574 1574 1571 1569 1567 1566
1564 1566 1567 1570 1572 1572 1574 1575 1576 1580 1580 1580 1583 1582 1583 1583 1582 1584 1588 1590 1589 1588 1587 1586 1584 1583 1582 1580 1578 1578 1576 1576 1575 1573 1572 1571 1571 1569 1568 1567 1564 1561 1559
1563 1565 1568 1569 1571 1573 1575 1576 1577 1580 1581 1582 1583 1583 1581 1581 1580 1582 1586 1586 1586 1585 1586 1583 1581 1579 1578 1577 1576 1575 1573 1573 1571 1570 1569 1567 1566 1566 1565 1562 1559 1557 1555
1561 1564 1566 1568 1570 1573 1575 1576 1577 1579 1580 1580 1581 1580 1580 1580 1583 1584 1583 1583 1583 1581 1581 1579 1577 1573 1572 1576 1575 1573 1570 1568 1567 1566 1564 1562 1561 1559 1557 1556 1554 1551 1550
1561 1563 1565 1566 1568 1571 1573 1574 1575 1576 1577 1578 1578 1579 1577 1577 1577 1579 1579 1578 1576 1576 1575 1573 1571 1570 1570 1570 1570 1569 1567 1564 1563 1561 1560 1559 1557 1555 1553 1550 1548 1546 1542
1561 1562 1564 1566 1566 1569 1571 1571 1571 1572 1573 1575 1575 1575 1573 1572 1573 1572 1572 1572 1571 1571 1570 1568 1567 1566 1565 1563 1563 1565 1565 1563 1560 1558 1556 1553 1551 1550 1549 1546 1542 1541 1538
1561 1562 1563 1565 1566 1567 1569 1570 1571 1571 1570 1573 1574 1574 1571 1571 1570 1570 1569 1569 1568 1567 1565 1563 1563 1562 1562 1560 1558 1559 1560 1558 1555 1551 1551 1549 1546 1545 1542 1540 1539 1536 1533
1562 1562 1562 1564 1566 1567 1570 1570 1570 1571 1571 1571 1572 1571 1570 1570 1568 1569 1568 1567 1565 1564 1561 1559 1560 1559 1558 1557 1555 1556 1552 1552 1550 1547 1545 1544 1541 1540 1537 1535 1533 1531 1528
1561 1562 1564 1564 1566 1568 1570 1571 1572 1572 1571 1571 1572 1570 1568 1567 1567 1567 1565 1562 1561 1558 1560 1559 1557 1555 1554 1551 1550 1548 1547 1544 1543 1541 1538 1537 1535 1532 1529 1528 1524 1522 1521
1561 1562 1564 1566 1567 1568 1570 1571 1571 1572 1573 1572 1569 1567 1566 1565 1564 1562 1561 1560 1559 1557 1556 1555 1552 1551 1549 1547 1546 1543 1541 1539 1536 1534 1532 1529 1527 1526 1521 1520 1516 1512 1510
1561 1563 1564 1566 1567 1569 1570 1571 1571 1570 1570 1568 1567 1566 1565 1564 1562 1561 1559 1558 1556 1554 1552 1550 1547 1545 1543 1541 1539 1537 1534 1530 1529 1527 1525 1522 1520 1516 1512 1509 1506 1501 1499
1560 1561 1563 1564 1565 1566 1567 1568 1568 1567 1566 1565 1565 1564 1562 1560 1559 1557 1555 1553 1551 1550 1548 1545 1543 1540 1539 1536 1532 1529 1526 1524 1521 1518 1516 1515 1512 1508 1504 1499 1496 1493 1491
1557 1559 1560 1561 1562 1563 1564 1564 1565 1565 1563 1563 1562 1561 1560 1558 1556 1554 1551 1549 1547 1544 1541 1538 1536 1533 1530 1527 1524 1521 1518 1515 1512 1509 1506 1502 1500 1497 1494 1490 1487 1483 1480
1555 1556 1557 1558 1560 1561 1561 1562 1562 1563 1562 1561 1560 1559 1558 1556 1554 1552 1550 1546 1543 1540 1537 1533 1530 1527 1525 1522 1519 1515 1511 1508 1504 1501 1497 1493 1491 1488 1485 1481 1477 1473 1469
1551 1553 1554 1556 1557 1558 1558 1559 1559 1559 1558 1557 1556 1556 1554 1552 1550 1548 1546 1543 1540 1537 1534 1530 1526 1522 1519 1515 1512 1509 1505 1501 1497 1493 1489 1483 1478 1476 1473 1469 1466 1463 1459
1546 1547 1550 1551 1552 1553 1555 1554 1553 1554 1553 1553 1553 1551 1550 1549 1548 1544 1542 1539 1536 1534 1530 1527 1522 1518 1514 1510 1506 1502 1498 1494 1490 1485 1480 1475 1470 1466 1462 1458 1454 1449 1446
1539 1541 1543 1546 1547 1548 1548 1548 1548 1548 1548 1548 1547 1547 1546 1545 1542 1540 1537 1535 1532 1529 1526 1522 1517 1512 1508 1504 1500 1495 1491 1487 1482 1478 1473 1467 1462 1457 1452 1446 1441 1437 1432
Wind_Speed
20 23 19 17 15 15 12 9 6 10 9 7 8 9 10 12 7 6 8 8 10 9 10 11 12 12 12 12 13 13 13 12 12 14 19 20 21 20 19 15 15 15 15
27 22 25 20 17 18 16 13 11 10 9 8 9 8 9 12 10 6 6 8 8 7 8 8 7 9 10 12 13 14 14 15 14 16 17 17 19 16 16 15 14 15 18
28 32 25 22 19 18 18 17 13 12 12 11 9 10 8 8 7 6 7 7 8 8 7 8 9 9 10 9 9 11 11 13 14 16 16 17 19 17 17 18 18 18 16
28 28 22 22 20 16 15 16 15 14 13 13 12 11 10 9 8 8 8 9 10 11 10 11 10 11 11 11 12 11 11 13 14 15 15 16 16 17 19 18 18 16 21
15 18 16 15 14 16 14 13 13 13 13 13 13 13 12 13 12 10 11 11 11 11 12 12 12 12 13 12 13 12 14 15 15 15 17 17 16 15 16 16 18 20 20
11 15 17 21 19 13 9 8 5 6 7 10 12 13 14 15 15 14 13 12 11 11 10 10 12 13 13 13 13 15 15 17 18 18 18 18 19 18 18 18 20 21 24
17 19 15 16 18 14 14 10 6 8 7 5 4 7 11 13 14 13 13 13 14 13 13 14 13 14 16 17 18 19 20 20 21 22 24 24 24 21 23 27 23 26 26
16 15 15 17 16 18 13 15 7 3 5 7 3 4 7 8 10 10 11 12 13 15 15 16 17 19 20 20 22 22 22 24 25 25 27 28 28 29 29 28 30 31 28
16 14 12 12 11 11 11 10 13 9 3 8 7 7 6 6 7 5 6 8 12 13 13 13 15 17 21 22 23 23 23 23 24 26 26 28 28 28 27 28 27 22 24
16 15 13 11 8 8 7 6 4 1 5 4 4 9 9 9 7 6 8 6 7 8 9 11 13 16 19 21 22 22 23 23 26 26 25 24 25 26 25 25 26 26 24
12 10 10 9 8 6 5 5 4 4 6 5 9 10 8 5 4 6 8 6 4 5 7 9 11 11 11 13 15 16 19 20 19 19 18 17 17 16 14 14 17 19 20
10 9 9 8 7 7 7 8 9 9 8 8 7 5 3 3 2 3 4 5 6 5 7 7 9 10 11 12 13 14 15 17 18 18 15 13 13 14 15 16 18 19 20
8 8 8 8 8 8 8 8 9 10 10 8 7 6 4 4 5 6 8 9 10 11 13 13 13 15 16 17 16 17 17 17 15 15 17 17 17 20 20 19 18 17 18
8 9 8 8 7 7 7 8 8 9 8 8 8 8 8 10 12 13 13 15 16 17 18 20 20 20 21 22 21 19 18 17 18 19 21 23 24 23 22 22 23 22 22
7 8 8 7 7 6 5 5 4 3 4 5 6 7 8 10 12 14 15 16 16 16 17 17 18 18 18 18 18 17 12 12 13 18 20 22 22 22 22 24 25 25 22
8 9 9 8 8 7 6 5 4 2 2 2 4 5 7 9 12 14 15 16 17 17 17 17 18 17 17 17 16 15 13 14 15 19 20 20 20 21 22 24 22 21 24
9 9 9 9 9 8 7 6 5 6 5 5 5 5 6 8 10 12 12 13 14 14 15 16 15 15 16 16 16 14 18 18 22 18 20 21 21 22 26 23 22 22 23
9 9 9 9 9 9 9 9 8 7 6 6 6 8 9 9 10 11 13 14 14 14 14 15 16 18 19 19 20 21 24 26 26 28 28 26 27 27 26 30 30 27 27
8 9 9 9 9 9 8 7 6 5 5 6 9 10 12 12 14 15 16 17 17 17 18 18 18 19 19 20 21 22 24 24 23 24 24 28 29 28 30 34 36 37 38
10 10 9 9 9 8 7 6 5 6 6 8 10 12 13 14 14 16 17 18 19 20 21 22 23 23 23 22 22 21 23 25 26 26 28 29 28 31 36 34 35 38 41
10 10 9 8 8 7 5 5 5 6 7 9 11 13 15 16 17 18 19 19 20 21 21 22 23 24 24 25 26 27 26 25 24 24 24 26 29 31 33 35 37 37 38
12 11 9 9 8 6 5 3 3 4 7 9 12 14 16 17 18 19 20 21 22 23 23 25 26 26 25 26 27 26 29 30 30 28 28 31 34 38 39 39 42 39 38
17 15 13 12 11 10 7 4 0 2 5 8 11 13 15 17 17 19 21 22 24 26 27 27 28 29 30 29 29 29 29 29 29 28 30 31 33 37 40 42 41 41 41
20 20 18 16 14 14 11 8 5 3 6 9 10 12 15 17 18 20 21 22 24 25 27 29 29 30 31 31 31 31 31 31 30 32 33 36 38 39 40 41 42 44 46
25 24 24 23 20 17 14 11 8 7 8 10 12 14 16 18 19 19 21 23 24 26 28 29 28 29 30 30 30 30 31 30 31 31 33 35 37 38 40 42 43 44 43
31 30 29 26 25 22 18 13 11 10 11 12 14 16 17 17 19 20 21 23 25 27 27 28 28 28 29 29 29 29 29 29 30 30 31 32 34 39 39 41 42 43 43
Wind_Direction
232 233 235 235 232 234 238 229 196 192 214 233 232 228 230 227 227 238 238 249 246 249 253 249 252 259 267 274 276 276 279 286 291 298 308 313 315 321 325 328 331 330 325
239 238 234 234 237 235 235 237 225 219 229 232 232 238 244 220 223 232 238 241 250 246 253 250 262 270 270 275 268 271 276 284 291 302 308 318 322 327 329 336 337 333 327
234 234 242 234 236 235 232 234 244 236 237 234 245 244 259 231 226 230 236 248 253 248 243 249 262 268 275 274 273 279 276 277 292 299 304 312 320 327 329 332 329 328 333
228 222 232 227 228 232 223 228 241 243 243 239 235 240 239 239 248 258 260 261 258 256 258 260 263 261 262 265 269 270 273 277 285 292 293 301 306 315 323 328 325 327 323
226 202 207 205 210 208 208 213 227 239 244 249 245 241 244 250 253 261 263 266 256 259 264 270 269 272 273 272 276 278 278 277 283 283 291 296 303 308 314 314 317 318 324
214 208 201 197 192 179 170 171 190 224 236 244 245 243 244 248 256 263 264 267 271 272 271 272 278 277 278 268 272 280 280 282 286 288 288 290 300 308 310 311 313 314 316
208 217 210 210 228 230 235 230 238 233 225 215 235 243 245 248 250 253 257 265 269 273 278 280 278 276 274 270 271 276 278 279 282 286 287 290 293 299 303 307 305 304 306
194 200 213 215 224 236 239 228 219 241 247 246 219 227 249 262 254 254 258 264 264 268 272 273 273 271 274 275 275 278 279 280 280 281 282 285 289 294 297 299 300 302 304
166 176 183 187 188 195 213 226 238 255 223 217 198 224 236 248 253 267 270 269 265 266 272 277 277 275 277 277 278 280 280 278 276 275 275 280 284 286 288 291 296 295 297
141 144 144 148 167 170 170 192 221 157 173 212 253 221 228 241 260 275 291 291 288 293 294 297 302 302 299 297 300 300 295 292 288 284 283 285 286 288 287 287 290 289 290
124 122 122 128 137 139 139 138 154 163 173 175 191 183 173 178 258 299 294 282 291 311 316 314 313 311 306 306 307 301 300 302 303 302 303 305 307 308 308 300 296 293 288
145 146 151 147 147 139 134 132 139 159 179 182 181 184 176 106 343 324 309 324 328 313 310 322 322 325 327 327 324 321 317 311 307 304 307 312 316 319 314 308 301 296 287
168 175 173 173 174 176 177 172 167 171 180 183 190 197 218 239 263 274 285 297 297 302 307 311 309 310 314 309 308 311 315 318 319 313 305 300 294 296 301 297 294 294 300
173 177 183 181 184 190 195 196 197 203 214 225 234 252 268 280 285 291 292 292 292 293 292 294 298 298 296 300 306 308 308 305 306 307 306 304 304 307 309 307 309 310 310
166 158 157 162 161 172 181 177 200 215 230 263 281 292 303 307 311 315 320 319 319 319 319 316 313 312 310 305 304 307 315 306 309 304 303 300 302 305 307 309 311 312 312
161 147 139 134 131 133 131 129 128 90 25 348 337 330 333 330 334 332 330 327 326 327 325 325 325 324 322 320 319 309 316 312 309 308 308 309 310 308 307 307 309 311 309
157 144 134 127 124 118 117 107 94 82 68 43 28 15 3 351 345 338 336 334 333 332 333 332 328 324 321 319 321 321 312 306 302 310 308 309 307 304 305 305 308 308 306
144 138 135 130 126 127 123 118 111 103 80 55 39 22 13 6 356 348 345 346 349 347 343 336 330 327 322 319 315 309 303 301 298 296 296 296 297 299 303 302 301 301 301
155 148 146 145 140 136 130 119 106 89 69 45 27 16 8 1 358 356 357 360 359 356 352 347 341 334 328 322 316 313 310 308 306 302 301 298 292 291 292 296 298 295 296
170 166 164 160 153 144 133 118 101 82 60 42 27 17 9 5 5 3 2 0 357 352 347 344 340 336 331 328 323 317 312 307 300 289 287 290 295 296 299 300 296 296 294
192 188 183 177 170 161 145 118 90 67 48 34 23 14 7 7 7 4 2 359 356 353 347 343 341 337 331 327 323 319 315 310 304 298 302 300 295 292 294 294 295 296 295
210 210 207 202 197 187 173 142 85 49 29 17 7 1 2 6 1 360 358 355 351 348 347 344 342 339 335 332 328 322 319 316 312 307 304 299 291 291 292 292 296 296 293
221 221 218 214 209 204 201 197 165 10 358 356 356 356 358 357 353 352 351 350 349 348 345 343 340 337 332 328 326 324 320 317 315 310 303 297 292 289 290 292 293 290 287
232 231 230 228 224 220 223 230 243 296 324 331 335 339 343 345 347 345 346 346 345 344 342 338 336 334 331 327 325 322 319 317 313 310 308 304 301 299 296 293 288 286 287
235 234 233 233 232 228 227 230 239 265 302 311 314 320 327 333 335 338 340 339 339 338 338 335 333 332 330 326 323 321 316 313 311 310 307 304 302 301 300 298 295 293 289
249 246 239 235 233 229 231 237 248 267 283 299 302 307 309 317 325 330 331 335 334 333 331 330 330 331 330 327 325 324 320 316 314 309 306 303 306 307 306 303 299 294 292